Weather History for Faribault, MN

Change the Weather History Date:

Monday, September 30, 2013

  Actual Average Record
Temperature  
Mean Temperature 66 °F -  
Max Temperature 78 °F 68 °F 114 °F (1998)
Min Temperature 53 °F 43 °F 29 °F (1956)
Growing Degree Days 16 (Base 50)    
Moisture  
Dew Point 51 °F    
Average Humidity 63    
Maximum Humidity 82    
Minimum Humidity 42    
Precipitation  
Precipitation 0.00 in - - ()
Sea Level Pressure  
Sea Level Pressure 29.72 in    
Wind  
Wind Speed 11 mph (SSE)    
Max Wind Speed 23 mph    
Max Gust Speed 31 mph    
Visibility 10 miles    
Events      
Averages and records for this station are not official NWS values.
T = Trace of Precipitation, MM = Missing Value Source: NWS Daily Summary

Daily Weather History Graph

Daily Weather History Graph

Search for Another Location

Airport:

Trip Planner

Search our weather history database for the weather conditions in past years. The results will help you decide how hot, cold, wet, or windy it might be!

Date:

Astronomy

Sep. 30, 2013 Rise Set
Actual Time 7:10 AM CDT 6:55 PM CDT
Civil Twilight 6:41 AM CDT 7:24 PM CDT
Nautical Twilight 6:07 AM CDT 7:57 PM CDT
Astronomical Twilight 5:33 AM CDT 8:31 PM CDT
Moon 2:39 AM CDT (9/30) 4:33 PM CDT (9/30)
Length of Visible Light 12h 42m
Length of Day
11h 45m
Waning Crescent, 19% of the Moon is Illuminated
Sep 30
Waning Crescent
Oct 4
New
Oct 11
First Quarter
Oct 18
Full
Oct 26
Last Quarter

Hourly Weather History & Observations

Time (CDT) Temp. Dew Point Humidity Pressure Visibility Wind Dir Wind Speed Gust Speed Precip Events Conditions
12:14 AM 57.2 °F 48.2 °F 72% 29.84 in 10.0 mi SSE 6.9 mph - N/A   Clear
12:34 AM 57.2 °F 48.2 °F 72% 29.84 in 10.0 mi SSE 9.2 mph - N/A   Clear
12:54 AM 57.2 °F 48.2 °F 72% 29.83 in 10.0 mi SSE 9.2 mph - N/A   Clear
1:14 AM 55.4 °F 48.2 °F 77% 29.83 in 10.0 mi SSE 9.2 mph - N/A   Clear
1:34 AM 55.4 °F 48.2 °F 77% 29.82 in 10.0 mi SSE 9.2 mph - N/A   Clear
1:54 AM 55.4 °F 48.2 °F 77% 29.82 in 10.0 mi SSE 9.2 mph - N/A   Clear
2:14 AM 55.4 °F 46.4 °F 72% 29.83 in 10.0 mi South 8.1 mph - N/A   Clear
2:34 AM 55.4 °F 48.2 °F 77% 29.82 in 10.0 mi SSE 9.2 mph - N/A   Clear
2:54 AM 55.4 °F 46.4 °F 72% 29.82 in 10.0 mi South 8.1 mph - N/A   Clear
3:14 AM 55.4 °F 48.2 °F 77% 29.80 in 10.0 mi South 10.4 mph - N/A   Clear
3:34 AM 57.2 °F 48.2 °F 72% 29.79 in 10.0 mi SSE 11.5 mph - N/A   Clear
3:54 AM 55.4 °F 48.2 °F 77% 29.79 in 10.0 mi SSE 10.4 mph - N/A   Clear
4:14 AM 55.4 °F 48.2 °F 77% 29.79 in 10.0 mi SSE 11.5 mph 16.1 mph N/A   Clear
4:34 AM 55.4 °F 48.2 °F 77% 29.78 in 10.0 mi SSE 10.4 mph - N/A   Clear
4:54 AM 55.4 °F 48.2 °F 77% 29.78 in 10.0 mi SSE 10.4 mph - N/A   Clear
5:14 AM 55.4 °F 48.2 °F 77% 29.77 in 10.0 mi South 10.4 mph - N/A   Clear
5:34 AM 55.4 °F 48.2 °F 77% 29.78 in 10.0 mi South 9.2 mph - N/A   Clear
5:54 AM 53.6 °F 48.2 °F 82% 29.77 in 10.0 mi SSE 9.2 mph - N/A   Clear
6:14 AM 53.6 °F 48.2 °F 82% 29.77 in 10.0 mi SSE 10.4 mph - N/A   Clear
6:34 AM 53.6 °F 48.2 °F 82% 29.76 in 10.0 mi SSE 9.2 mph - N/A   Clear
6:54 AM 53.6 °F 48.2 °F 82% 29.75 in 10.0 mi SSE 13.8 mph 18.4 mph N/A   Clear
7:14 AM 53.6 °F 48.2 °F 82% 29.75 in 10.0 mi SSE 12.7 mph 17.3 mph N/A   Clear
7:34 AM 53.6 °F 48.2 °F 82% 29.75 in 10.0 mi South 12.7 mph 20.7 mph N/A   Clear
7:53 AM 53.6 °F 48.2 °F 82% 29.74 in 10.0 mi SSE 13.8 mph - N/A   Clear
8:14 AM 53.6 °F 48.2 °F 82% 29.74 in 10.0 mi SSE 12.7 mph 20.7 mph N/A   Clear
8:34 AM 55.4 °F 50.0 °F 82% 29.73 in 10.0 mi South 13.8 mph - N/A   Clear
8:53 AM 57.2 °F 50.0 °F 77% 29.73 in 10.0 mi South 10.4 mph - N/A   Clear
9:14 AM 59.0 °F 51.8 °F 77% 29.73 in 10.0 mi South 13.8 mph 18.4 mph N/A   Clear
9:34 AM 62.6 °F 51.8 °F 68% 29.72 in 10.0 mi South 17.3 mph 23.0 mph N/A   Clear
9:54 AM 62.6 °F 51.8 °F 68% 29.72 in 10.0 mi South 18.4 mph 25.3 mph N/A   Clear
10:14 AM 64.4 °F 51.8 °F 64% 29.72 in 10.0 mi South 18.4 mph 25.3 mph N/A   Clear
10:33 AM 66.2 °F 51.8 °F 60% 29.72 in 10.0 mi South 15.0 mph 23.0 mph N/A   Clear
10:54 AM 66.2 °F 51.8 °F 60% 29.72 in 10.0 mi South 13.8 mph 23.0 mph N/A   Clear
11:14 AM 68.0 °F 53.6 °F 60% 29.71 in 10.0 mi South 12.7 mph 21.9 mph N/A   Clear
11:33 AM 69.8 °F 53.6 °F 56% 29.71 in 10.0 mi South 17.3 mph 23.0 mph N/A   Clear
11:54 AM 71.6 °F 53.6 °F 53% 29.70 in 10.0 mi South 17.3 mph 27.6 mph N/A   Clear
12:14 PM 71.6 °F 51.8 °F 50% 29.70 in 10.0 mi South 21.9 mph 31.1 mph N/A   Clear
12:33 PM 71.6 °F 53.6 °F 53% 29.70 in 10.0 mi South 19.6 mph 27.6 mph N/A   Clear
12:54 PM 73.4 °F 53.6 °F 50% 29.70 in 10.0 mi South 16.1 mph 28.8 mph N/A   Clear
1:14 PM 73.4 °F 53.6 °F 50% 29.68 in 10.0 mi South 18.4 mph 24.2 mph N/A   Clear
1:34 PM 75.2 °F 53.6 °F 47% 29.67 in 10.0 mi SSE 20.7 mph 26.5 mph N/A   Clear
1:54 PM 75.2 °F 53.6 °F 47% 29.68 in 10.0 mi South 19.6 mph 25.3 mph N/A   Clear
2:14 PM 77.0 °F 53.6 °F 44% 29.67 in 10.0 mi SSE 19.6 mph 25.3 mph N/A   Clear
2:34 PM 77.0 °F 53.6 °F 44% 29.67 in 10.0 mi South 11.5 mph 24.2 mph N/A   Clear
2:54 PM 77.0 °F 53.6 °F 44% 29.66 in 10.0 mi South 16.1 mph 26.5 mph N/A   Clear
3:14 PM 78.8 °F 53.6 °F 42% 29.66 in 10.0 mi SSE 23.0 mph 28.8 mph N/A   Clear
3:34 PM 78.8 °F 53.6 °F 42% 29.66 in 10.0 mi South 16.1 mph 27.6 mph N/A   Clear
3:54 PM 78.8 °F 53.6 °F 42% 29.65 in 10.0 mi South 10.4 mph 27.6 mph N/A   Clear
4:14 PM 78.8 °F 53.6 °F 42% 29.65 in 10.0 mi South 13.8 mph 25.3 mph N/A   Clear
4:34 PM 78.8 °F 53.6 °F 42% 29.65 in 10.0 mi South 16.1 mph 21.9 mph N/A   Clear
4:54 PM 78.8 °F 53.6 °F 42% 29.65 in 10.0 mi South 12.7 mph 20.7 mph N/A   Clear
5:14 PM 77.0 °F 53.6 °F 44% 29.64 in 10.0 mi South 16.1 mph 25.3 mph N/A   Clear
5:34 PM 77.0 °F 53.6 °F 44% 29.65 in 10.0 mi South 15.0 mph 23.0 mph N/A   Clear
5:54 PM 75.2 °F 53.6 °F 47% 29.65 in 10.0 mi SSE 15.0 mph 19.6 mph N/A   Clear
6:14 PM 73.4 °F 53.6 °F 50% 29.65 in 10.0 mi South 10.4 mph - N/A   Clear
6:33 PM 73.4 °F 53.6 °F 50% 29.65 in 10.0 mi SSE 10.4 mph 17.3 mph N/A   Clear
6:54 PM 71.6 °F 53.6 °F 53% 29.66 in 10.0 mi SSE 11.5 mph - N/A   Clear
7:13 PM 71.6 °F 53.6 °F 53% 29.66 in 10.0 mi SSE 11.5 mph 16.1 mph N/A   Clear
7:34 PM 69.8 °F 53.6 °F 56% 29.67 in 10.0 mi SSE 8.1 mph - N/A   Clear
7:54 PM 69.8 °F 53.6 °F 56% 29.66 in 10.0 mi SSE 10.4 mph - N/A   Clear
8:13 PM 68.0 °F 51.8 °F 56% 29.67 in 10.0 mi SSE 10.4 mph - N/A   Clear
8:34 PM 66.2 °F 51.8 °F 60% 29.68 in 10.0 mi South 11.5 mph 17.3 mph N/A   Clear
8:54 PM 66.2 °F 51.8 °F 60% 29.68 in 10.0 mi South 9.2 mph 18.4 mph N/A   Clear
9:13 PM 66.2 °F 51.8 °F 60% 29.69 in 10.0 mi South 11.5 mph 16.1 mph N/A   Clear
9:34 PM 64.4 °F 51.8 °F 64% 29.68 in 10.0 mi South 10.4 mph 17.3 mph N/A   Clear
9:53 PM 64.4 °F 51.8 °F 64% 29.69 in 10.0 mi SSE 9.2 mph - N/A   Clear
10:14 PM 64.4 °F 51.8 °F 64% 29.69 in 10.0 mi SSE 9.2 mph - N/A   Clear
10:34 PM 64.4 °F 51.8 °F 64% 29.69 in 10.0 mi SSE 9.2 mph - N/A   Clear
10:53 PM 64.4 °F 51.8 °F 64% 29.68 in 10.0 mi South 8.1 mph - N/A   Clear
11:14 PM 64.4 °F 51.8 °F 64% 29.68 in 10.0 mi South 8.1 mph - N/A   Clear
11:34 PM 64.4 °F 51.8 °F 64% 29.68 in 10.0 mi South 9.2 mph - N/A   Clear
11:53 PM 64.4 °F 51.8 °F 64% 29.68 in 10.0 mi South 11.5 mph - N/A   Clear